User: anonymous
Location: Unspecified
(0.0000°N, 0.0000°E)
Time: 13:48:15
(UTC+02:00)
Language:

CZ-4 DEB - Orbit

View from above orbital plane
View from above orbital plane
View from above satellite
View from above satellite

Ground track
Ground track

The orbit data is extracted from the following two-line orbital elements,

1 29508U 06046D   14272.10096610  .00022050  00000-0  12078-2 0  6928
2 29508 097.7054 280.0776 0003670 313.3592 087.3991 15.14225900433039
Epoch (UTC): 29 September 2014 02:25:23
Eccentricity: 0.0003670
inclination: 97.7054°
perigee height: 521 km
apogee height: 526 km
right ascension of ascending node: 280.0776°
argument of perigee: 313.3592°
revolutions per day: 15.14225900
mean anomaly at epoch: 87.3991°
orbit number at epoch: 43303

The dashed part of the orbit path shows where the satellite is in the earth's shadow,  

DLR